Weather History for St. Petersburg Airport, FL

Change the Weather History Date:

Friday, January 18, 2013

  Actual Average Record
Temperature  
Mean Temperature 53 °F -  
Max Temperature 62 °F 70 °F 80 °F (1949)
Min Temperature 44 °F 54 °F 33 °F (1959)
Degree Days  
Heating Degree Days 12    
Growing Degree Days 3 (Base 50)    
Moisture  
Dew Point 45 °F    
Average Humidity 70    
Maximum Humidity 76    
Minimum Humidity 59    
Precipitation  
Precipitation 0.00 in - - ()
Sea Level Pressure  
Sea Level Pressure 30.27 in    
Wind  
Wind Speed 14 mph (NNE)    
Max Wind Speed 21 mph    
Max Gust Speed 28 mph    
Visibility 10 miles    
Events      
Averages and records for this station are not official NWS values.
T = Trace of Precipitation, MM = Missing Value Source: NWS Daily Summary

Daily Weather History Graph

Daily Weather History Graph

Search for Another Location

Airport:

Trip Planner

Search our weather history database for the weather conditions in past years. The results will help you decide how hot, cold, wet, or windy it might be!

Date:

Astronomy

Jan. 18, 2013 Rise Set
Actual Time 7:22 AM EST 6:00 PM EST
Civil Twilight 6:57 AM EST 6:25 PM EST
Nautical Twilight 6:28 AM EST 6:53 PM EST
Astronomical Twilight 6:00 AM EST 7:22 PM EST
Moon 11:43 AM EST (1/18) 12:09 AM EST (1/18)
Length of Visible Light 11h 27m
Length of Day
10h 37m
Waxing Crescent, 47% of the Moon is Illuminated
Jan 18
Waxing Crescent
Jan 18
First Quarter
Jan 26
Full
Feb 3
Last Quarter
Feb 10
New

Hourly Weather History & Observations

Time (EST) Temp. Windchill Dew Point Humidity Pressure Visibility Wind Dir Wind Speed Gust Speed Precip Events Conditions
12:53 AM 52.0 °F - 44.1 °F 74% 30.18 in 10.0 mi NNW 20.7 mph 26.5 mph N/A   Overcast
1:53 AM 51.1 °F - 43.0 °F 74% 30.19 in 10.0 mi NNW 17.3 mph 23.0 mph N/A   Overcast
2:53 AM 51.1 °F - 43.0 °F 74% 30.20 in 10.0 mi North 15.0 mph 23.0 mph N/A   Overcast
3:53 AM 48.9 °F - 41.0 °F 74% 30.20 in 10.0 mi North 13.8 mph 23.0 mph N/A   Overcast
4:19 AM 46.4 °F 40.4 °F 39.2 °F 76% 30.21 in 10.0 mi NNE 13.8 mph 21.9 mph N/A   Partly Cloudy
4:53 AM 45.0 °F 38.2 °F 37.9 °F 76% 30.22 in 10.0 mi NNE 15.0 mph - N/A   Clear
5:53 AM 44.1 °F 36.8 °F 36.0 °F 73% 30.25 in 10.0 mi NNE 16.1 mph 24.2 mph N/A   Clear
6:53 AM 44.1 °F 36.2 °F 35.1 °F 71% 30.27 in 10.0 mi North 18.4 mph 25.3 mph N/A   Clear
7:53 AM 44.1 °F 37.4 °F 36.0 °F 73% 30.30 in 10.0 mi NNE 13.8 mph 20.7 mph N/A   Clear
8:16 AM 44.6 °F 37.2 °F 35.6 °F 71% 30.31 in 10.0 mi NE 17.3 mph 21.9 mph N/A   Mostly Cloudy
8:53 AM 45.0 °F 39.7 °F 37.0 °F 74% 30.32 in 10.0 mi NNE 10.4 mph - N/A   Overcast
9:53 AM 48.9 °F - 39.9 °F 71% 30.33 in 10.0 mi NNE 5.8 mph - N/A   Overcast
10:23 AM 51.8 °F - 39.2 °F 62% 30.33 in 10.0 mi NNE 8.1 mph - N/A   Overcast
10:53 AM 51.1 °F - 41.0 °F 68% 30.32 in 10.0 mi NNE 6.9 mph - N/A   Overcast
11:19 AM 53.6 °F - 42.8 °F 67% 30.32 in 10.0 mi NNE 8.1 mph - N/A   Overcast
11:53 AM 54.0 °F - 43.0 °F 66% 30.31 in 10.0 mi NNE 11.5 mph - N/A   Overcast
12:05 PM 55.4 °F - 44.6 °F 67% 30.30 in 10.0 mi NNE 8.1 mph - N/A   Overcast
12:53 PM 57.9 °F - 46.0 °F 65% 30.27 in 10.0 mi NE 10.4 mph - N/A   Scattered Clouds
1:30 PM 60.8 °F - 46.4 °F 59% 30.26 in 10.0 mi NE 8.1 mph - N/A   Mostly Cloudy
1:53 PM 61.0 °F - 48.9 °F 64% 30.25 in 10.0 mi NE 11.5 mph - N/A   Overcast
2:53 PM 61.0 °F - 50.0 °F 67% 30.25 in 10.0 mi NE 13.8 mph - N/A   Overcast
3:29 PM 60.8 °F - 51.8 °F 72% 30.25 in 10.0 mi ENE 8.1 mph - N/A   Overcast
3:53 PM 61.0 °F - 52.0 °F 72% 30.25 in 10.0 mi NE 6.9 mph - N/A   Overcast
4:01 PM 60.8 °F - 51.8 °F 72% 30.25 in 10.0 mi NE 8.1 mph - N/A   Overcast
4:33 PM 62.6 °F - 51.8 °F 68% 30.25 in 10.0 mi NNE 9.2 mph - N/A   Overcast
4:53 PM 62.1 °F - 52.0 °F 70% 30.25 in 10.0 mi NE 12.7 mph - N/A   Overcast
5:53 PM 62.1 °F - 53.1 °F 72% 30.27 in 10.0 mi NE 8.1 mph - N/A   Overcast
6:36 PM 62.6 °F - 53.6 °F 72% 30.27 in 10.0 mi NNE 13.8 mph 20.7 mph N/A   Overcast
6:53 PM 62.1 °F - 52.0 °F 70% 30.28 in 10.0 mi NE 11.5 mph - N/A   Overcast
7:00 PM 62.6 °F - 51.8 °F 68% 30.28 in 10.0 mi NE 15.0 mph 19.6 mph N/A   Overcast
7:53 PM 62.1 °F - 52.0 °F 70% 30.29 in 10.0 mi NE 18.4 mph 25.3 mph N/A   Overcast
8:53 PM 60.1 °F - 50.0 °F 69% 30.31 in 10.0 mi NE 19.6 mph 27.6 mph N/A   Overcast
9:53 PM 59.0 °F - 50.0 °F 72% 30.30 in 10.0 mi NE 12.7 mph 25.3 mph N/A   Overcast
10:53 PM 57.9 °F - 48.9 °F 72% 30.30 in 10.0 mi NNE 11.5 mph - N/A   Overcast
11:53 PM 57.0 °F - 48.0 °F 72% 30.29 in 10.0 mi NNE 9.2 mph 18.4 mph N/A   Overcast